Погода в Юце

Россия / Ставропольский край     43°58′56″N   43°00′43″E
темп.,
°C
ветер,
м/с
пор.,
м/с
влажн.,
%
обл.,
%
осадки,
мм/ч
давл.,
гПа
погр.,
м
14 июня, пн
пн1400:00+14юз21925 1.3 101312
03:00+13зюз22881 1.3 101313
06:00+15ююз11850 0.0 101348
09:00+19в34740 0.0 1012758
12:00+21в556823 0.0 10121233
15:00+22вюв566625 0.1 10111317
18:00+21вюв367853 0.0 1011638
21:00+16ююв36905 0.0 101193
15 июня, вт
вт1500:00+16ююв2290100 0.0 101029
03:00+16юв2288100 0.0 100929
06:00+17юв2690100 0.5 1009212
09:00+20вюв47757 0.5 1009730
12:00+23вюв547011 0.1 10091007
15:00+24в436857 0.1 10091155
18:00+22вюв247931 0.3 1010493
21:00+19ююв22813 0.4 101134
16 июня, ср
ср1600:00+17ю22860 0.0 101018
03:00+16ююв22880 0.0 101020
06:00+18юв25850 0.0 1009168
09:00+22вюв611760 0.0 1008887
12:00+24вюв79690 0.0 10071037
15:00+24вюв566860 0.0 10081201
18:00+24юв247649 0.1 1009610
21:00+19юз11840 0.1 100911
17 июня, чт
чт1700:00+18юз22870 0.0 100812
03:00+17зюз11880 0.0 100913
06:00+19сз11855 0.0 100964
09:00+22с327626 0.0 1009792
12:00+24ссз446878 0.1 10091285
15:00+23сз467555 0.3 10101116
18:00+17з61294100 2.6 1013660
21:00+17з6148729 3.2 1014509
18 июня, пт
пт1800:00+15зсз48900 0.1 1015220
03:00+15з512931 0.1 1016431
06:00+16з410890 0.0 1016453
09:00+20зсз57691 0.0 1016781
12:00+22ссз556711 0.0 10161226
15:00+21ссз447524 0.2 1016896
18:00+20ссз238038 0.3 1017644
21:00+17з22922 0.3 101824